| time (UTC) | temp F | wind direction | speed knots | gust knots | rain 1hr in | rain 24hr in | rain mn in | humidity % | barometer mb |
| 20260504034528 | 70 | 0 | 0.0 | 2.6 | 0.00 | 0.00 | 0.00 | 82 | 1018.6 |
| 20260504033030 | 70 | 97 | 0.0 | 3.5 | 0.00 | 0.00 | 0.00 | 82 | 1018.5 |
| 20260504031528 | 70 | 98 | 0.9 | 3.5 | 0.00 | 0.00 | 0.00 | 81 | 1018.6 |
| 20260504030033 | 70 | 112 | 0.9 | 3.5 | 0.00 | 0.00 | 0.00 | 80 | 1018.5 |
| 20260504024528 | 71 | 76 | 1.7 | 5.2 | 0.00 | 0.00 | 0.00 | 80 | 1018.5 |
| 20260504023028 | 71 | 72 | 0.9 | 5.2 | 0.00 | 0.00 | 0.00 | 79 | 1018.3 |
| 20260504021533 | 71 | 95 | 0.9 | 5.2 | 0.00 | 0.00 | 0.00 | 78 | 1018.2 |
| 20260504020031 | 72 | 62 | 1.7 | 7.8 | 0.00 | 0.00 | 0.00 | 77 | 1018.3 |
| 20260504014537 | 72 | 85 | 1.7 | 5.2 | 0.00 | 0.00 | 0.00 | 77 | 1018.3 |
| 20260504013029 | 73 | 0 | 0.9 | 3.5 | 0.00 | 0.00 | 0.00 | 75 | 1018.3 |
| 20260504011528 | 73 | 90 | 0.9 | 5.2 | 0.00 | 0.00 | 0.00 | 74 | 1018.3 |
| 20260504010030 | 73 | 61 | 1.7 | 9.6 | 0.00 | 0.00 | 0.00 | 73 | 1018.2 |
| 20260504004528 | 74 | 57 | 1.7 | 8.7 | 0.00 | 0.00 | 0.00 | 72 | 1017.8 |
| 20260504003034 | 74 | 102 | 2.6 | 10.4 | 0.00 | 0.00 | 0.00 | 71 | 1017.8 |
| 20260504001532 | 75 | 75 | 4.3 | 10.4 | 0.00 | 0.00 | 0.00 | 70 | 1017.6 |
| 20260504000028 | 75 | 53 | 4.3 | 12.2 | 0.00 | 0.00 | 0.00 | 69 | 1017.7 |
| 20260503234529 | 75 | 70 | 6.1 | 12.2 | 0.00 | 0.00 | 0.00 | 68 | 1017.8 |
| 20260503233029 | 76 | 82 | 4.3 | 10.4 | 0.00 | 0.00 | 0.00 | 67 | 1017.9 |
| 20260503231530 | 76 | 65 | 4.3 | 11.3 | 0.00 | 0.00 | 0.00 | 67 | 1018.0 |
| 20260503230029 | 77 | 61 | 4.3 | 13.0 | 0.00 | 0.00 | 0.00 | 66 | 1018.3 |
| 20260503224528 | 76 | 67 | 4.3 | 10.4 | 0.00 | 0.00 | 0.00 | 66 | 1018.3 |
| 20260503223028 | 77 | 94 | 4.3 | 10.4 | 0.00 | 0.00 | 0.00 | 64 | 1018.5 |
| 20260503221529 | 77 | 36 | 5.2 | 12.2 | 0.00 | 0.00 | 0.00 | 65 | 1018.6 |
| 20260503220030 | 77 | 63 | 3.5 | 11.3 | 0.00 | 0.00 | 0.00 | 64 | 1019.1 |
| 20260503214528 | 78 | 37 | 6.1 | 13.0 | 0.00 | 0.00 | 0.00 | 62 | 1018.8 |
| 20260503213030 | 78 | 83 | 4.3 | 13.9 | 0.00 | 0.00 | 0.00 | 62 | 1018.8 |
| 20260503211530 | 78 | 53 | 6.1 | 10.4 | 0.00 | 0.00 | 0.00 | 61 | 1019.1 |
| 20260503210028 | 78 | 65 | 4.3 | 13.9 | 0.00 | 0.00 | 0.00 | 61 | 1019.2 |
| 20260503204528 | 77 | 128 | 1.7 | 11.3 | 0.00 | 0.00 | 0.00 | 60 | 1019.5 |
| 20260503203029 | 78 | 61 | 4.3 | 9.6 | 0.00 | 0.00 | 0.00 | 60 | 1020.0 |
| 20260503201530 | 78 | 98 | 5.2 | 9.6 | 0.00 | 0.00 | 0.00 | 60 | 1020.4 |
| 20260503200029 | 77 | 78 | 4.3 | 12.2 | 0.00 | 0.00 | 0.00 | 61 | 1020.5 |
| 20260503194533 | 77 | 42 | 6.1 | 13.9 | 0.00 | 0.00 | 0.00 | 61 | 1020.7 |
| 20260503193029 | 77 | 53 | 5.2 | 13.0 | 0.00 | 0.00 | 0.00 | 60 | 1020.7 |
| 20260503191536 | 77 | 50 | 6.1 | 13.0 | 0.00 | 0.00 | 0.00 | 62 | 1021.0 |
| 20260503190027 | 79 | 102 | 4.3 | 11.3 | 0.00 | 0.00 | 0.00 | 59 | 1021.1 |
| 20260503184529 | 78 | 59 | 4.3 | 11.3 | 0.00 | 0.00 | 0.00 | 60 | 1021.5 |
| 20260503183030 | 79 | 58 | 6.1 | 12.2 | 0.00 | 0.00 | 0.00 | 58 | 1021.6 |
| 20260503181527 | 78 | 314 | 4.3 | 8.7 | 0.00 | 0.00 | 0.00 | 59 | 1021.6 |
| 20260503180042 | 77 | 39 | 4.3 | 12.2 | 0.00 | 0.00 | 0.00 | 59 | 1022.0 |
| 20260503174528 | 77 | 32 | 6.1 | 11.3 | 0.00 | 0.00 | 0.00 | 61 | 1022.0 |
| 20260503173028 | 78 | 57 | 2.6 | 12.2 | 0.00 | 0.00 | 0.00 | 61 | 1022.1 |
| 20260503171529 | 77 | 33 | 4.3 | 13.9 | 0.00 | 0.00 | 0.00 | 62 | 1022.4 |
| 20260503081526 | 64 | 327 | 0.0 | 2.6 | 0.00 | 0.00 | 0.00 | 82 | 1020.9 |
| 20260503071531 | 64 | 0 | 0.0 | 1.7 | 0.00 | 0.00 | 0.00 | 83 | 1021.3 |
| 20260503054536 | 65 | 294 | 0.0 | 2.6 | 0.00 | 0.00 | 0.00 | 79 | 1021.9 |
| 20260503053029 | 65 | 0 | 0.0 | 2.6 | 0.00 | 0.00 | 0.00 | 80 | 1022.1 |
| 20260503051526 | 65 | 0 | 0.0 | 2.6 | 0.00 | 0.00 | 0.00 | 80 | 1022.0 |
| 20260503050034 | 65 | 0 | 0.0 | 1.7 | 0.00 | 0.00 | 0.00 | 79 | 1021.8 |
| 20260503044527 | 65 | 0 | 0.0 | 0.9 | 0.00 | 0.00 | 0.00 | 78 | 1021.7 |
| 20260503043040 | 66 | 0 | 0.0 | 0.9 | 0.00 | 0.00 | 0.00 | 78 | 1021.7 |
| 20260503041528 | 66 | 0 | 0.0 | 3.5 | 0.00 | 0.00 | 0.00 | 78 | 1021.7 |
| 20260503040030 | 66 | 0 | 0.0 | 2.6 | 0.00 | 0.00 | 0.00 | 78 | 1021.8 |